星链-6241 (STARLINK-6241 )

导读

STARLINK-6241是美国SpaceX星链互联网星座的卫星,于2023年5月4日发射入轨,属于星链低轨卫星组网的组成部分。星链项目旨在通过大规模低轨卫星群,为全球提供高速低延迟互联网覆盖,该卫星服役至今,已成为全球天基互联网基础设施中一颗普通节点,服务星链系统的全球通信覆盖能力。

基本信息
目录编号:
56409
目录名称:
STARLINK-6241
国际标识:
2023-061AM
轨道中心:
EARTH
卫星名称:
星链-6241
卫星全名:
星链-6241 (STARLINK-6241 )
卫星状态:
在轨 (已飞行1219 天)
发射日期:
2023-05-04 UTC
国别 :
美国 (US)
星等 :
--
轨道信息
数据来源 国际轨道数据
星历时间: 2026-09-04T09:49:18+0800
11小时前
查看轨道信息
半长轴: 6861.2km
偏心率: 0.0000916
轨道倾角: 43.001°
近地点辐角 276.724°
升交点赤经 259.849°
平近点角 83.351°
近地点: 482.434km
远地点: 483.692km
周期: 94.267分钟
每日圈数: 15.275755
详细信息
固有亮度:
5
最大亮度:
2.5
卫星平台:
Starlink v1.5
覆盖范围:
全球
运营商:
太空探索技术公司
运营商所在国:
美国
制造商(研发单位):
太空探索技术公司
制造商所在国:
美国
使用方式:
暂无
卫星简介
星链(Starlink)计划是由太空探索技术公司(SpaceX)提出的一个巨型低轨卫星互联网星座项目,计划在2019年至2024年间在太空搭建由约1.2万颗卫星组成的“星链”网络,其中1584颗将部署在地球上空550千米处的近地轨道,并从2020年开始工作。该卫星仍在工作。
2D轨道图
3D轨道图
轨道高度分析图
轨道倾角分析图
轨道综合分析图
查看轨道综合分析图
交会数据列表
事件ID 空间交会对象 最接近时刻(TCA) 交会距离 交会风险概率(CRP) 交会风险指数(CRI) 操作
CDM_260906-074405-640906-192221
2026-09-06T
07:44:37+0000
0.355 km
远距离
2.905081E-4 高风险 0.84
CDM_260906-055205-640906-341121
2026-09-06T
05:52:35+0000
0.636 km
远距离
6.353463E-5 中风险 0.71
CDM_260905-120205-640906-792421
2026-09-05T
12:02:59+0000
0.646 km
远距离
5.309875E-5 中风险 0.7
CDM_260905-182405-640906-192221
2026-09-05T
18:24:19+0000
0.906 km
远距离
2.435021E-5 中风险 0.63
CDM_260905-102805-640906-792421
2026-09-05T
10:28:50+0000
1.223 km
极远距离
6.392903E-6 低风险 0.51
CDM_260905-195805-640906-192221
2026-09-05T
19:58:28+0000
1.373 km
极远距离
5.837663E-6 低风险 0.5
CDM_260906-072605-640906-341121
2026-09-06T
07:26:44+0000
1.940 km
极远距离
1.789088E-6 低风险 0.4
CDM_260828-130905-640906-341121
2026-08-28T
13:09:46+0000
1.969 km
极远距离
1.725276E-6 低风险 0.4
CDM_260906-061005-640906-192221
2026-09-06T
06:10:28+0000
2.102 km
极远距离
1.711965E-6 低风险 0.4
CDM_260904-012005-640906-434421
2026-09-04T
01:20:08+0000
2.223 km
极远距离
1.267854E-6 低风险 0.37